This is the latest recevied weather packets stored in our database for station/object W4SNA-2. If no packets are shown the sender has not sent any weather packets the latest 10 day(s).
| Time | Temp. | Humidity | Pressure | Rain* | Wind** | Luminosity | Snow |
|---|---|---|---|---|---|---|---|
| 1777661400 | 16.67° C | 49% | 1014.6 hPa | 0 mm | - | - | - |
| 1777661100 | 16.67° C | 50% | 1014.7 hPa | 0 mm | - | - | - |
| 1777660801 | 16.11° C | 51% | 1014.7 hPa | 0 mm | - | - | - |
| 1777660500 | 16.67° C | 52% | 1014.8 hPa | 0 mm | - | - | - |
| 1777660200 | 16.11° C | 49% | 1014.8 hPa | 0 mm | - | - | - |
| 1777659900 | 16.11° C | 52% | 1014.9 hPa | 0 mm | - | - | - |
| 1777659600 | 16.67° C | 51% | 1014.9 hPa | 0 mm | - | - | - |
| 1777659300 | 16.67° C | 53% | 1014.9 hPa | 0 mm | - | - | - |
| 1777659002 | 16.11° C | 50% | 1014.8 hPa | 0 mm | - | - | - |
| 1777658700 | 16.11° C | 50% | 1014.9 hPa | 0 mm | - | - | - |
| 1777658400 | 15.56° C | 51% | 1015 hPa | 0 mm | - | - | - |
| 1777658101 | 15° C | 54% | 1014.9 hPa | 0 mm | - | - | - |
| 1777657801 | 14.44° C | 51% | 1015 hPa | 0 mm | - | - | - |
| 1777657338 | 15.56° C | 52% | 1015.3 hPa | 0 mm | - | - | - |
| 1777657038 | 15.56° C | 56% | 1015.3 hPa | 0 mm | - | - | - |
| 1777656738 | 15.56° C | 50% | 1015.4 hPa | 0 mm | - | - | - |
| 1777656438 | 15.56° C | 50% | 1015.4 hPa | 0 mm | - | - | - |
| 1777656138 | 15.56° C | 52% | 1015.4 hPa | 0 mm | - | - | - |
| 1777655837 | 15° C | 51% | 1015.7 hPa | 0 mm | - | - | - |
| 1777655538 | 15° C | 51% | 1015.6 hPa | 0 mm | - | - | - |
| 1777655238 | 14.44° C | 53% | 1015.6 hPa | 0 mm | - | - | - |
| 1777654938 | 14.44° C | 57% | 1015.7 hPa | 0 mm | - | - | - |
| 1777654638 | 14.44° C | 56% | 1015.5 hPa | 0 mm | - | - | - |
| 1777654338 | 14.44° C | 52% | 1015.7 hPa | 0 mm | - | - | - |
| 1777654038 | 14.44° C | 56% | 1015.8 hPa | 0 mm | - | - | - |
* Rain latest hour (hover to see other rain measurements)
** Current wind speed in m/s (hover to see current wind gust speed)